Location: Binningen
(47.7924°N, 8.7261°E)
Time: 12:26:25
(UTC+00:00)

Cosmos 1461 - Pass Details

Date: 17 May 2021
Orbit: 510 x 653 km, 65.0° (Epoch: 19 June)

Event Time Altitude Azimuth Distance (km) Brightness Sun altitude
Exits shadow 20:15:29 - 189° (S) 2,986 6.2 -10.8°
Rises 20:15:33 0° 189° (S) 2,961 6.2 -10.9°
Reaches altitude 10° 20:18:01 10° 180° (S) 2,054 5.3 -11.1°
Maximum altitude 20:22:11 33° 117° (ESE) 1,098 3.8 -11.6°
Drops below altitude 10° 20:26:19 10° 54° (NE) 2,037 5.7 -12.1°
Sets 20:28:45 0° 45° (NE) 2,933 6.6 -12.4°
